contact:dominique.lefevre@mio.osupytheas.fr, maurice.libes@osupytheas.fr, didier.mallarino@osupytheas.fr
Project:EMSO http://www.emso-fr.org/EMSO-France
Depth: 2436.0 m
Title:EMSO Ligure Ouest : Data MII capteur AQUADOPP
Date,Latitude,Longitude,X_East,Y_North,Z_Up,Amplitude_X,Amplitude_Y,Amplitude_Z,Batterie,SoundSpeed,Heading,Pitch,Roll,Pressure,TIS,Speed,Direction
, degrees North, degrees East, m.s-1, m.s-1,m.s-1, 1, 1, 1, Volt, m.s-1, degree, degree, degree, dbar, degree_C, m.s-1, degree
2019-08-20T00:00:42,42.805,6.029,0.015,-0.022,-0.015,105.0,107.0,101.0,13.4,1505.3,325.0,-0.7,1.8,2470.178,13.32,0.026,145.7
2019-08-20T00:03:42,42.805,6.029,0.008,-0.026,-0.017,106.0,108.0,100.0,13.4,1505.3,325.3,-0.7,1.8,2470.178,13.32,0.027,162.9
2019-08-20T00:06:43,42.805,6.029,0.001,-0.042,-0.045,105.0,107.0,101.0,13.4,1505.3,325.9,-0.7,1.8,2470.16,13.32,0.042,178.6
2019-08-20T00:09:44,42.805,6.029,0.027,-0.035,0.003,106.0,106.0,102.0,13.3,1505.3,326.4,-0.7,1.8,2470.154,13.32,0.044,142.3
2019-08-20T00:12:45,42.805,6.029,0.032,-0.02,0.002,105.0,106.0,102.0,13.4,1505.3,324.2,-0.7,1.8,2470.16,13.32,0.037,122.0
2019-08-20T00:15:46,42.805,6.029,0.028,-0.035,-0.011,105.0,107.0,101.0,13.4,1505.3,328.4,-0.7,1.8,2470.158,13.32,0.044,141.3
2019-08-20T00:18:47,42.805,6.029,-0.011,-0.027,-0.011,106.0,105.0,102.0,13.3,1505.3,324.7,-0.8,1.8,2470.17,13.32,0.029,202.2
2019-08-20T00:21:48,42.805,6.029,0.034,-0.046,-0.013,105.0,105.0,101.0,13.4,1505.3,324.6,-0.7,1.8,2470.169,13.32,0.057,143.5
2019-08-20T00:24:49,42.805,6.029,0.012,-0.032,-0.005,106.0,105.0,100.0,13.4,1505.3,328.1,-0.7,1.8,2470.124,13.32,0.034,159.4
2019-08-20T00:27:50,42.805,6.029,0.026,-0.04,0.004,106.0,105.0,102.0,13.3,1505.3,325.1,-0.7,1.9,2470.119,13.32,0.047,147.0
2019-08-20T00:30:52,42.805,6.029,0.0,-0.026,-0.034,104.0,106.0,101.0,13.4,1505.3,324.0,-0.7,1.8,2470.136,13.32,0.026,180.0
2019-08-20T00:33:52,42.805,6.029,-0.005,-0.047,-0.007,106.0,106.0,102.0,13.4,1505.3,327.0,-0.7,1.8,2470.152,13.32,0.047,186.1
2019-08-20T00:36:53,42.805,6.029,0.012,-0.021,0.027,105.0,106.0,101.0,13.4,1505.3,324.9,-0.7,1.8,2470.139,13.32,0.024,150.3
2019-08-20T00:39:54,42.805,6.029,0.025,-0.02,-0.022,103.0,106.0,101.0,13.3,1505.3,323.8,-0.7,1.8,2470.172,13.32,0.032,128.7
2019-08-20T00:42:55,42.805,6.029,0.011,-0.026,0.003,106.0,106.0,101.0,13.4,1505.3,324.8,-0.8,1.8,2470.123,13.32,0.028,157.1
2019-08-20T00:45:56,42.805,6.029,0.002,-0.011,-0.006,105.0,106.0,100.0,13.4,1505.3,323.7,-0.7,1.9,2470.173,13.32,0.011,169.7
2019-08-20T00:48:57,42.805,6.029,-0.002,-0.011,-0.047,104.0,106.0,100.0,13.4,1505.3,327.6,-0.7,1.8,2470.144,13.32,0.011,190.3
2019-08-20T00:51:58,42.805,6.029,0.009,-0.028,-0.031,105.0,105.0,100.0,13.4,1505.3,324.2,-0.7,1.8,2470.154,13.32,0.029,162.2
2019-08-20T00:54:59,42.805,6.029,-0.001,-0.03,-0.027,105.0,106.0,101.0,13.4,1505.3,323.4,-0.7,1.8,2470.137,13.32,0.03,181.9
2019-08-20T00:58:00,42.805,6.029,0.0,-0.018,0.006,105.0,104.0,102.0,13.4,1505.3,325.6,-0.7,1.8,2470.119,13.32,0.018,180.0
2019-08-20T01:01:01,42.805,6.029,0.024,-0.043,-0.044,103.0,106.0,100.0,13.3,1505.3,324.1,-0.7,1.8,2470.133,13.32,0.049,150.8
2019-08-20T01:04:02,42.805,6.029,-0.007,-0.033,-0.016,105.0,106.0,101.0,13.4,1505.3,327.5,-0.7,1.8,2470.151,13.32,0.033,192.0
2019-08-20T01:07:03,42.805,6.029,-0.002,-0.019,-0.004,104.0,106.0,100.0,13.4,1505.3,328.3,-0.7,1.8,2470.143,13.32,0.019,186.0
2019-08-20T01:10:04,42.805,6.029,-0.015,-0.038,-0.034,106.0,104.0,101.0,13.4,1505.3,325.5,-0.7,1.8,2470.14,13.32,0.04,201.5
2019-08-20T01:13:05,42.805,6.029,0.013,-0.022,-0.033,105.0,106.0,101.0,13.4,1505.3,325.9,-0.7,1.8,2470.143,13.32,0.025,149.4
2019-08-20T01:16:06,42.805,6.029,0.011,-0.019,-0.016,104.0,106.0,102.0,13.3,1505.3,323.6,-0.7,1.8,2470.108,13.32,0.021,149.9
2019-08-20T01:19:07,42.805,6.029,0.02,-0.047,-0.041,105.0,105.0,100.0,13.3,1505.3,323.3,-0.7,1.8,2470.12,13.32,0.051,157.0
2019-08-20T01:22:08,42.805,6.029,0.01,-0.029,-0.02,104.0,106.0,101.0,13.4,1505.3,328.1,-0.7,1.8,2470.123,13.32,0.03,161.0
2019-08-20T01:25:10,42.805,6.029,0.02,-0.048,-0.019,105.0,106.0,101.0,13.4,1505.3,327.0,-0.7,1.8,2470.099,13.32,0.052,157.4
2019-08-20T01:28:10,42.805,6.029,0.008,-0.034,-0.017,105.0,106.0,100.0,13.4,1505.3,324.5,-0.7,1.8,2470.149,13.32,0.034,166.8
2019-08-20T01:31:11,42.805,6.029,-0.015,-0.015,-0.03,105.0,106.0,101.0,13.4,1505.3,326.1,-0.7,1.8,2470.118,13.32,0.021,225.0
2019-08-20T01:34:12,42.805,6.029,-0.024,-0.022,-0.017,105.0,106.0,100.0,13.4,1505.3,326.7,-0.7,1.8,2470.119,13.32,0.032,227.5
2019-08-20T01:37:13,42.805,6.029,-0.027,-0.038,-0.042,105.0,105.0,101.0,13.3,1505.3,326.3,-0.7,1.8,2470.124,13.32,0.046,215.4
2019-08-20T01:40:14,42.805,6.029,-0.014,-0.03,-0.02,105.0,105.0,101.0,13.4,1505.3,326.9,-0.7,1.8,2470.103,13.32,0.033,205.0
2019-08-20T01:43:15,42.805,6.029,0.011,-0.023,-0.023,104.0,105.0,100.0,13.4,1505.3,324.1,-0.7,1.8,2470.146,13.32,0.025,154.4
2019-08-20T01:46:16,42.805,6.029,-0.007,-0.032,-0.033,105.0,104.0,101.0,13.4,1505.3,326.0,-0.7,1.8,2470.089,13.32,0.032,192.3
2019-08-20T01:49:17,42.805,6.029,0.006,-0.04,-0.025,104.0,106.0,101.0,13.3,1505.3,327.1,-0.7,1.8,2470.1,13.32,0.04,171.5
2019-08-20T01:52:18,42.805,6.029,0.014,-0.031,-0.042,105.0,106.0,101.0,13.4,1505.3,324.4,-0.7,1.8,2470.067,13.32,0.034,155.7
2019-08-20T01:55:19,42.805,6.029,-0.008,-0.027,-0.006,104.0,105.0,100.0,13.3,1505.3,325.0,-0.8,1.8,2470.096,13.32,0.028,196.5
2019-08-20T01:58:20,42.805,6.029,-0.003,-0.014,-0.004,104.0,105.0,101.0,13.4,1505.3,327.7,-0.7,1.8,2470.097,13.32,0.014,192.1
2019-08-20T02:01:21,42.805,6.029,-0.004,-0.022,-0.019,104.0,104.0,101.0,13.3,1505.3,325.4,-0.7,1.8,2470.076,13.32,0.022,190.3
2019-08-20T02:04:22,42.805,6.029,0.012,-0.024,-0.034,105.0,105.0,101.0,13.3,1505.3,323.5,-0.7,1.8,2470.033,13.32,0.026,153.4
2019-08-20T02:07:23,42.805,6.029,0.007,-0.027,-0.007,105.0,105.0,99.0,13.4,1505.3,325.1,-0.7,1.8,2470.091,13.32,0.027,165.5
2019-08-20T02:10:24,42.805,6.029,0.012,-0.018,0.007,104.0,106.0,100.0,13.3,1505.3,326.5,-0.7,1.8,2470.101,13.32,0.021,146.3
2019-08-20T02:13:25,42.805,6.029,0.008,-0.024,-0.031,104.0,104.0,100.0,13.4,1505.3,324.2,-0.7,1.8,2470.081,13.32,0.025,161.6
2019-08-20T02:16:26,42.805,6.029,0.01,-0.012,-0.002,105.0,105.0,101.0,13.4,1505.3,326.2,-0.7,1.9,2470.082,13.32,0.015,140.2
2019-08-20T02:19:27,42.805,6.029,-0.038,-0.026,-0.029,105.0,106.0,102.0,13.3,1505.3,323.7,-0.7,1.8,2470.117,13.32,0.046,235.6
2019-08-20T02:22:28,42.805,6.029,0.004,-0.024,-0.022,105.0,105.0,101.0,13.3,1505.3,325.3,-0.7,1.9,2470.082,13.32,0.024,170.5
2019-08-20T02:25:29,42.805,6.029,-0.017,-0.043,-0.047,104.0,106.0,101.0,13.4,1505.3,326.0,-0.7,1.8,2470.109,13.32,0.046,201.6
2019-08-20T02:28:30,42.805,6.029,-0.009,-0.037,-0.033,105.0,105.0,102.0,13.4,1505.3,326.5,-0.7,1.9,2470.042,13.32,0.038,193.7
2019-08-20T02:31:31,42.805,6.029,0.03,-0.002,0.009,103.0,106.0,102.0,13.3,1505.3,328.3,-0.7,1.8,2470.101,13.32,0.03,93.8
2019-08-20T02:34:32,42.805,6.029,-0.009,-0.028,-0.039,104.0,105.0,100.0,13.4,1505.3,326.5,-0.7,1.9,2470.078,13.32,0.029,197.8
2019-08-20T02:37:33,42.805,6.029,0.027,-0.041,-0.034,105.0,105.0,100.0,13.4,1505.3,327.8,-0.7,1.8,2470.121,13.32,0.049,146.6
2019-08-20T02:40:34,42.805,6.029,0.028,-0.023,-0.008,104.0,106.0,101.0,13.3,1505.3,325.8,-0.7,1.8,2470.102,13.32,0.036,129.4
2019-08-20T02:43:35,42.805,6.029,0.014,-0.022,0.0,104.0,105.0,101.0,13.3,1505.3,326.8,-0.7,1.9,2470.067,13.32,0.026,147.5
2019-08-20T02:46:36,42.805,6.029,0.037,-0.015,0.022,104.0,106.0,101.0,13.4,1505.3,323.8,-0.7,1.9,2470.085,13.32,0.039,112.1
2019-08-20T02:49:37,42.805,6.029,0.004,-0.025,-0.013,104.0,106.0,102.0,13.4,1505.3,323.5,-0.7,1.8,2470.078,13.32,0.025,170.9
2019-08-20T02:52:38,42.805,6.029,0.0,-0.034,0.028,104.0,105.0,101.0,13.3,1505.3,324.2,-0.7,1.9,2470.096,13.32,0.034,180.0
2019-08-20T02:55:39,42.805,6.029,0.005,-0.031,-0.004,105.0,106.0,100.0,13.4,1505.3,324.9,-0.7,1.8,2470.086,13.32,0.031,170.8
2019-08-20T02:58:40,42.805,6.029,0.016,-0.033,-0.017,104.0,105.0,101.0,13.4,1505.3,323.1,-0.7,1.8,2470.054,13.32,0.036,154.1
2019-08-20T03:01:41,42.805,6.029,0.004,-0.005,-0.011,104.0,106.0,100.0,13.4,1505.3,323.2,-0.7,1.8,2470.1,13.32,0.006,141.3
2019-08-20T03:04:42,42.805,6.029,0.024,-0.036,-0.035,104.0,105.0,101.0,13.4,1505.3,327.5,-0.7,1.8,2470.05,13.32,0.043,146.3
2019-08-20T03:07:43,42.805,6.029,0.021,-0.037,0.001,104.0,104.0,101.0,13.4,1505.3,326.7,-0.7,1.8,2470.043,13.32,0.042,150.4
2019-08-20T03:10:44,42.805,6.029,0.023,-0.031,0.016,105.0,105.0,101.0,13.4,1505.3,325.7,-0.7,1.8,2470.038,13.32,0.038,143.4
2019-08-20T03:13:45,42.805,6.029,0.006,-0.051,-0.032,105.0,106.0,102.0,13.4,1505.3,324.5,-0.7,1.8,2470.089,13.32,0.051,173.3
2019-08-20T03:16:46,42.805,6.029,0.016,-0.027,0.0,103.0,105.0,100.0,13.4,1505.3,323.7,-0.7,1.8,2470.054,13.32,0.031,149.3
2019-08-20T03:19:47,42.805,6.029,0.012,-0.02,-0.015,104.0,105.0,102.0,13.4,1505.3,324.3,-0.7,1.8,2470.04,13.32,0.023,149.0
2019-08-20T03:22:48,42.805,6.029,-0.006,-0.031,-0.01,105.0,106.0,101.0,13.4,1505.3,326.3,-0.7,1.8,2470.077,13.32,0.031,191.0
2019-08-20T03:25:49,42.805,6.029,0.028,-0.029,-0.026,105.0,106.0,101.0,13.3,1505.3,326.6,-0.7,1.8,2470.052,13.32,0.04,136.0
2019-08-20T03:28:50,42.805,6.029,0.019,-0.036,-0.028,105.0,106.0,101.0,13.4,1505.3,323.8,-0.7,1.8,2470.057,13.32,0.04,152.2
2019-08-20T03:31:51,42.805,6.029,0.001,-0.005,0.008,105.0,104.0,100.0,13.3,1505.3,323.6,-0.7,1.9,2470.028,13.32,0.005,168.7
2019-08-20T03:34:52,42.805,6.029,0.004,-0.03,-0.041,105.0,105.0,100.0,13.4,1505.3,327.9,-0.7,1.8,2470.063,13.32,0.03,172.4
2019-08-20T03:37:53,42.805,6.029,0.016,-0.047,-0.037,103.0,107.0,101.0,13.3,1505.3,325.3,-0.7,1.8,2470.083,13.32,0.049,161.2
2019-08-20T03:40:54,42.805,6.029,0.027,-0.046,-0.02,104.0,106.0,101.0,13.4,1505.3,326.3,-0.7,1.8,2470.056,13.32,0.053,149.6
2019-08-20T03:43:55,42.805,6.029,-0.021,-0.036,-0.009,105.0,105.0,101.0,13.3,1505.3,325.7,-0.7,1.8,2470.049,13.32,0.041,210.3
2019-08-20T03:46:56,42.805,6.029,-0.012,-0.033,-0.008,105.0,104.0,101.0,13.3,1505.3,325.8,-0.7,1.9,2470.047,13.32,0.035,200.0
2019-08-20T03:49:57,42.805,6.029,0.009,-0.028,0.0,106.0,106.0,102.0,13.4,1505.3,327.1,-0.7,1.8,2470.063,13.32,0.029,162.2
2019-08-20T03:52:58,42.805,6.029,-0.004,-0.043,-0.021,105.0,105.0,101.0,13.4,1505.3,327.3,-0.7,1.9,2470.047,13.32,0.043,185.3
2019-08-20T03:55:59,42.805,6.029,0.01,-0.034,-0.02,105.0,106.0,101.0,13.4,1505.3,324.7,-0.7,1.9,2470.051,13.32,0.035,163.6
2019-08-20T03:59:00,42.805,6.029,-0.012,-0.029,-0.015,105.0,106.0,101.0,13.3,1505.3,325.8,-0.7,1.9,2470.091,13.32,0.031,202.5
2019-08-20T04:02:01,42.805,6.029,0.023,0.002,-0.032,105.0,106.0,101.0,13.3,1505.3,323.7,-0.7,1.8,2470.073,13.32,0.023,85.0
2019-08-20T04:05:02,42.805,6.029,0.005,-0.041,-0.049,104.0,106.0,101.0,13.4,1505.3,326.9,-0.7,1.8,2470.098,13.32,0.041,173.0
2019-08-20T04:08:03,42.805,6.029,0.0,-0.012,0.007,105.0,107.0,100.0,13.4,1505.3,324.7,-0.7,1.8,2470.066,13.32,0.012,180.0
2019-08-20T04:11:04,42.805,6.029,-0.016,-0.017,-0.016,105.0,106.0,101.0,13.3,1505.3,325.7,-0.7,1.8,2470.06,13.32,0.023,223.3
2019-08-20T04:14:05,42.805,6.029,-0.014,-0.011,-0.011,106.0,107.0,101.0,13.4,1505.3,326.6,-0.7,1.8,2470.111,13.32,0.017,231.8
2019-08-20T04:17:06,42.805,6.029,-0.003,-0.045,-0.045,107.0,106.0,101.0,13.4,1505.3,324.1,-0.7,1.8,2470.03,13.32,0.045,183.8
2019-08-20T04:20:08,42.805,6.029,-0.009,-0.021,0.01,105.0,106.0,102.0,13.4,1505.3,325.7,-0.7,1.8,2470.067,13.32,0.022,203.2
2019-08-20T04:23:08,42.805,6.029,0.02,-0.019,0.007,105.0,106.0,101.0,13.4,1505.3,324.1,-0.7,1.8,2469.999,13.32,0.027,133.5
2019-08-20T04:26:09,42.805,6.029,0.007,-0.049,-0.022,103.0,106.0,101.0,13.4,1505.3,324.0,-0.7,1.8,2470.079,13.32,0.049,171.9
2019-08-20T04:29:10,42.805,6.029,-0.013,-0.022,-0.016,104.0,107.0,100.0,13.4,1505.3,325.8,-0.7,1.8,2470.068,13.32,0.025,210.6
2019-08-20T04:32:11,42.805,6.029,-0.009,-0.031,-0.019,105.0,105.0,100.0,13.3,1505.3,324.5,-0.7,1.8,2470.01,13.32,0.032,196.2
2019-08-20T04:35:12,42.805,6.029,0.001,-0.031,-0.011,105.0,105.0,101.0,13.3,1505.3,323.0,-0.7,1.8,2470.042,13.32,0.031,178.2
2019-08-20T04:38:13,42.805,6.029,-0.001,-0.023,-0.033,105.0,107.0,100.0,13.4,1505.3,324.4,-0.7,1.8,2470.051,13.32,0.023,182.5
2019-08-20T04:41:14,42.805,6.029,-0.001,-0.043,-0.018,105.0,106.0,101.0,13.4,1505.3,323.3,-0.7,1.8,2470.04,13.32,0.043,181.3
2019-08-20T04:44:16,42.805,6.029,-0.001,-0.045,-0.01,104.0,105.0,101.0,13.3,1505.3,325.7,-0.8,1.8,2470.052,13.32,0.045,181.3
2019-08-20T04:47:16,42.805,6.029,0.002,-0.031,-0.019,105.0,105.0,101.0,13.4,1505.3,326.5,-0.7,1.8,2470.042,13.32,0.031,176.3
2019-08-20T04:50:17,42.805,6.029,0.016,-0.039,0.007,106.0,104.0,100.0,13.3,1505.3,324.4,-0.7,1.8,2470.042,13.32,0.042,157.7
2019-08-20T04:53:18,42.805,6.029,0.009,-0.029,0.004,104.0,105.0,101.0,13.4,1505.3,324.7,-0.7,1.8,2470.019,13.32,0.03,162.8
2019-08-20T04:56:19,42.805,6.029,-0.001,-0.02,-0.001,103.0,106.0,100.0,13.4,1505.3,324.2,-0.7,1.8,2470.04,13.32,0.02,182.9
2019-08-20T04:59:20,42.805,6.029,-0.013,-0.024,-0.031,104.0,107.0,101.0,13.4,1505.3,324.8,-0.7,1.8,2470.04,13.32,0.027,208.4
2019-08-20T05:02:22,42.805,6.029,-0.022,-0.02,-0.022,106.0,106.0,103.0,13.4,1505.3,326.8,-0.7,1.8,2470.0,13.32,0.029,227.7
2019-08-20T05:05:22,42.805,6.029,-0.003,-0.035,-0.013,104.0,105.0,102.0,13.4,1505.3,324.7,-0.7,1.8,2470.043,13.32,0.035,184.9
2019-08-20T05:08:23,42.805,6.029,-0.021,-0.022,-0.055,106.0,105.0,103.0,13.4,1505.3,323.3,-0.7,1.8,2469.984,13.32,0.03,223.7
2019-08-20T05:11:24,42.805,6.029,0.019,-0.036,-0.033,105.0,107.0,101.0,13.3,1505.3,323.0,-0.7,1.8,2470.071,13.32,0.04,152.2
2019-08-20T05:14:25,42.805,6.029,0.008,-0.028,-0.004,106.0,105.0,101.0,13.4,1505.3,323.8,-0.7,1.9,2470.051,13.32,0.029,164.1
2019-08-20T05:17:26,42.805,6.029,0.002,-0.031,-0.025,106.0,105.0,101.0,13.4,1505.3,323.6,-0.7,1.8,2470.025,13.32,0.031,176.3
2019-08-20T05:20:27,42.805,6.029,-0.032,-0.013,-0.021,106.0,106.0,101.0,13.3,1505.3,323.2,-0.8,1.8,2470.07,13.32,0.034,247.9
2019-08-20T05:23:28,42.805,6.029,0.013,-0.017,0.007,104.0,106.0,101.0,13.3,1505.3,324.9,-0.7,1.8,2470.053,13.32,0.021,142.6
2019-08-20T05:26:29,42.805,6.029,0.005,-0.031,-0.005,104.0,107.0,101.0,13.4,1505.3,327.9,-0.7,1.8,2470.062,13.32,0.031,170.8
2019-08-20T05:29:30,42.805,6.029,-0.005,-0.008,0.003,104.0,105.0,101.0,13.3,1505.3,327.2,-0.7,1.9,2470.074,13.32,0.009,212.0
2019-08-20T05:32:31,42.805,6.029,-0.01,-0.037,-0.02,105.0,106.0,100.0,13.3,1505.3,324.9,-0.7,1.9,2470.082,13.32,0.038,195.1
2019-08-20T05:35:32,42.805,6.029,-0.024,-0.011,-0.007,105.0,104.0,101.0,13.4,1505.3,326.4,-0.7,1.8,2470.025,13.32,0.026,245.4
2019-08-20T05:38:33,42.805,6.029,-0.014,-0.029,-0.034,103.0,106.0,101.0,13.4,1505.3,325.6,-0.7,1.9,2470.034,13.32,0.032,205.8
2019-08-20T05:41:34,42.805,6.029,-0.015,-0.045,-0.047,104.0,106.0,101.0,13.4,1505.3,324.5,-0.7,1.8,2470.063,13.32,0.047,198.4
2019-08-20T05:44:35,42.805,6.029,-0.01,-0.046,-0.025,105.0,106.0,100.0,13.3,1505.3,323.1,-0.7,1.8,2470.04,13.32,0.047,192.3
2019-08-20T05:47:36,42.805,6.029,-0.016,-0.025,0.014,105.0,105.0,101.0,13.4,1505.3,327.4,-0.7,1.8,2470.048,13.32,0.029,212.6
2019-08-20T05:50:37,42.805,6.029,-0.008,-0.017,-0.04,105.0,106.0,100.0,13.4,1505.3,325.4,-0.7,1.8,2470.086,13.32,0.018,205.2
2019-08-20T05:53:38,42.805,6.029,-0.013,-0.032,-0.017,104.0,106.0,100.0,13.4,1505.3,324.1,-0.7,1.8,2470.045,13.32,0.034,202.1
2019-08-20T05:56:39,42.805,6.029,-0.013,-0.017,-0.062,105.0,106.0,101.0,13.4,1505.3,325.2,-0.7,1.8,2470.071,13.32,0.021,217.4
2019-08-20T05:59:41,42.805,6.029,-0.026,-0.034,-0.051,104.0,106.0,101.0,13.4,1505.3,323.5,-0.7,1.8,2470.092,13.32,0.042,217.4
2019-08-20T06:02:41,42.805,6.029,-0.009,-0.046,-0.03,105.0,106.0,101.0,13.4,1505.3,327.9,-0.7,1.8,2470.117,13.32,0.046,191.1
2019-08-20T06:05:42,42.805,6.029,0.018,-0.033,0.004,105.0,106.0,101.0,13.4,1505.3,324.8,-0.7,1.8,2470.065,13.32,0.037,151.4
2019-08-20T06:08:43,42.805,6.029,0.007,-0.019,0.011,105.0,105.0,101.0,13.3,1505.3,323.7,-0.7,1.9,2470.08,13.32,0.02,159.8
2019-08-20T06:11:44,42.805,6.029,-0.001,-0.037,-0.045,104.0,105.0,100.0,13.4,1505.3,327.9,-0.7,1.8,2470.074,13.32,0.037,181.5
2019-08-20T06:14:45,42.805,6.029,0.027,-0.017,0.032,104.0,105.0,101.0,13.3,1505.3,324.8,-0.7,1.8,2470.054,13.32,0.031,122.2
2019-08-20T06:17:46,42.805,6.029,0.006,-0.046,-0.012,104.0,105.0,100.0,13.4,1505.3,327.0,-0.7,1.8,2470.05,13.32,0.046,172.6
2019-08-20T06:20:47,42.805,6.029,0.029,-0.024,-0.019,104.0,105.0,101.0,13.4,1505.3,325.5,-0.7,1.8,2470.076,13.32,0.037,129.6
2019-08-20T06:23:48,42.805,6.029,-0.001,-0.024,-0.015,104.0,106.0,101.0,13.4,1505.3,326.9,-0.7,1.8,2470.081,13.32,0.024,182.4
2019-08-20T06:26:49,42.805,6.029,-0.001,-0.052,-0.005,105.0,106.0,100.0,13.3,1505.3,326.1,-0.7,1.9,2470.067,13.32,0.052,181.1
2019-08-20T06:29:50,42.805,6.029,-0.039,-0.012,-0.055,104.0,107.0,101.0,13.4,1505.3,328.6,-0.8,1.8,2470.081,13.32,0.04,252.9
2019-08-20T06:32:51,42.805,6.029,-0.004,-0.024,-0.031,104.0,105.0,101.0,13.4,1505.3,326.9,-0.7,1.8,2470.114,13.32,0.024,189.5
2019-08-20T06:35:52,42.805,6.029,0.017,-0.02,-0.012,105.0,106.0,100.0,13.4,1505.3,327.6,-0.7,1.8,2470.093,13.32,0.026,139.6
2019-08-20T06:38:53,42.805,6.029,0.0,-0.034,-0.034,103.0,104.0,102.0,13.4,1505.3,326.3,-0.7,1.8,2470.081,13.32,0.034,180.0
2019-08-20T06:41:54,42.805,6.029,-0.008,-0.006,-0.007,104.0,106.0,101.0,13.4,1505.3,326.8,-0.7,1.8,2470.067,13.32,0.01,233.1
2019-08-20T06:44:55,42.805,6.029,0.014,-0.031,-0.012,105.0,105.0,100.0,13.4,1505.3,326.9,-0.7,1.8,2470.079,13.32,0.034,155.7
2019-08-20T06:47:56,42.805,6.029,0.009,-0.019,-0.013,105.0,106.0,101.0,13.4,1505.3,325.5,-0.7,1.8,2470.069,13.32,0.021,154.7
2019-08-20T06:50:57,42.805,6.029,0.016,-0.049,-0.009,104.0,105.0,100.0,13.4,1505.3,327.1,-0.7,1.8,2470.114,13.32,0.051,161.9
2019-08-20T06:53:58,42.805,6.029,0.008,-0.021,0.023,104.0,107.0,100.0,13.4,1505.3,327.2,-0.7,1.8,2470.161,13.32,0.022,159.1
2019-08-20T06:56:59,42.805,6.029,0.025,-0.027,0.015,104.0,104.0,101.0,13.3,1505.3,325.8,-0.7,1.8,2470.085,13.32,0.036,137.2
2019-08-20T07:00:00,42.805,6.029,-0.01,-0.031,-0.037,104.0,106.0,100.0,13.4,1505.3,327.0,-0.7,1.8,2470.085,13.32,0.032,197.9
2019-08-20T07:03:02,42.805,6.029,-0.011,-0.013,-0.018,104.0,106.0,101.0,13.4,1505.3,323.7,-0.7,1.9,2470.135,13.32,0.017,220.2
2019-08-20T07:06:03,42.805,6.029,-0.024,-0.054,-0.036,106.0,105.0,101.0,13.4,1505.3,327.0,-0.7,1.8,2470.046,13.32,0.059,204.0
2019-08-20T07:09:04,42.805,6.029,0.009,-0.02,-0.033,105.0,105.0,100.0,13.3,1505.3,324.0,-0.7,1.8,2470.123,13.33,0.021,155.8
2019-08-20T07:12:05,42.805,6.029,-0.002,-0.017,-0.008,105.0,107.0,102.0,13.4,1505.3,326.8,-0.7,1.8,2470.101,13.33,0.017,186.7
2019-08-20T07:15:06,42.805,6.029,0.001,-0.024,-0.033,105.0,106.0,100.0,13.3,1505.3,328.1,-0.7,1.9,2470.133,13.32,0.024,177.6
2019-08-20T07:18:07,42.805,6.029,-0.001,-0.021,-0.052,104.0,105.0,101.0,13.4,1505.3,324.4,-0.7,1.8,2470.107,13.32,0.021,182.7
2019-08-20T07:21:07,42.805,6.029,-0.006,-0.029,-0.011,105.0,106.0,101.0,13.4,1505.3,323.3,-0.7,1.8,2470.111,13.32,0.029,191.7
2019-08-20T07:24:08,42.805,6.029,0.034,-0.038,0.018,105.0,105.0,101.0,13.4,1505.3,326.3,-0.7,1.8,2470.106,13.32,0.05,138.2
2019-08-20T07:27:10,42.805,6.029,-0.015,-0.035,-0.003,104.0,107.0,100.0,13.4,1505.3,325.5,-0.7,1.8,2470.138,13.32,0.038,203.2
2019-08-20T07:30:11,42.805,6.029,0.0,-0.022,-0.018,104.0,106.0,100.0,13.4,1505.3,327.8,-0.7,1.8,2470.104,13.32,0.022,180.0
2019-08-20T07:33:12,42.805,6.029,-0.017,-0.036,-0.016,106.0,105.0,100.0,13.3,1505.3,327.5,-0.7,1.8,2470.106,13.32,0.039,205.3
2019-08-20T07:36:12,42.805,6.029,-0.01,-0.027,-0.021,105.0,106.0,101.0,13.4,1505.3,324.4,-0.7,1.8,2470.127,13.32,0.028,200.3
2019-08-20T07:39:14,42.805,6.029,0.0,-0.018,-0.013,106.0,105.0,99.0,13.4,1505.3,323.1,-0.7,1.9,2470.141,13.32,0.018,180.0
2019-08-20T07:42:15,42.805,6.029,0.004,-0.014,-0.018,104.0,106.0,100.0,13.3,1505.3,322.9,-0.7,1.8,2470.122,13.32,0.014,164.1
2019-08-20T07:45:16,42.805,6.029,0.018,-0.019,0.012,105.0,104.0,100.0,13.3,1505.3,328.1,-0.7,1.8,2470.073,13.32,0.026,136.5
2019-08-20T07:48:17,42.805,6.029,-0.013,-0.037,-0.024,105.0,106.0,99.0,13.3,1505.3,324.9,-0.7,1.8,2470.144,13.32,0.039,199.4
2019-08-20T07:51:18,42.805,6.029,-0.02,-0.039,-0.058,104.0,106.0,100.0,13.4,1505.3,323.7,-0.7,1.8,2470.128,13.32,0.043,207.1
2019-08-20T07:54:19,42.805,6.029,0.008,-0.022,-0.048,105.0,107.0,101.0,13.4,1505.3,327.6,-0.7,1.8,2470.159,13.32,0.023,160.0
2019-08-20T07:57:20,42.805,6.029,-0.022,-0.02,-0.055,105.0,105.0,100.0,13.4,1505.3,323.7,-0.8,1.8,2470.107,13.32,0.029,227.7
2019-08-20T08:00:21,42.805,6.029,0.002,-0.02,-0.024,103.0,105.0,100.0,13.3,1505.3,324.8,-0.7,1.8,2470.153,13.32,0.02,174.3
2019-08-20T08:03:22,42.805,6.029,-0.03,-0.016,-0.033,104.0,106.0,102.0,13.4,1505.3,323.7,-0.7,1.8,2470.153,13.32,0.034,241.9
2019-08-20T08:06:23,42.805,6.029,0.01,-0.023,-0.017,104.0,105.0,101.0,13.4,1505.3,325.2,-0.7,1.9,2470.12,13.32,0.025,156.5
2019-08-20T08:09:24,42.805,6.029,-0.042,-0.024,-0.061,105.0,106.0,101.0,13.4,1505.3,326.6,-0.7,1.8,2470.159,13.32,0.048,240.3
2019-08-20T08:12:25,42.805,6.029,0.011,-0.023,-0.031,104.0,105.0,101.0,13.3,1505.3,326.8,-0.7,1.8,2470.131,13.32,0.025,154.4
2019-08-20T08:15:26,42.805,6.029,-0.036,-0.014,-0.041,104.0,105.0,100.0,13.4,1505.3,326.8,-0.7,1.8,2470.149,13.32,0.038,248.8
2019-08-20T08:18:27,42.805,6.029,-0.006,-0.002,-0.003,105.0,107.0,99.0,13.4,1505.3,326.0,-0.7,1.8,2470.17,13.32,0.006,251.6
2019-08-20T08:21:28,42.805,6.029,-0.012,-0.032,-0.06,104.0,106.0,101.0,13.4,1505.3,328.4,-0.7,1.9,2470.156,13.32,0.034,200.6
2019-08-20T08:24:29,42.805,6.029,0.01,-0.018,-0.017,104.0,105.0,101.0,13.4,1505.3,323.3,-0.7,1.8,2470.159,13.32,0.02,150.9
2019-08-20T08:27:30,42.805,6.029,0.033,-0.017,0.01,103.0,105.0,100.0,13.4,1505.3,326.5,-0.7,1.8,2470.142,13.32,0.037,117.3
2019-08-20T08:30:31,42.805,6.029,-0.01,-0.015,0.004,103.0,106.0,101.0,13.4,1505.3,327.3,-0.7,1.8,2470.145,13.32,0.018,213.7
2019-08-20T08:33:32,42.805,6.029,-0.015,-0.031,-0.027,104.0,106.0,101.0,13.4,1505.3,326.7,-0.7,1.9,2470.151,13.32,0.034,205.8
2019-08-20T08:36:33,42.805,6.029,0.012,-0.015,-0.023,104.0,105.0,101.0,13.4,1505.3,328.2,-0.7,1.8,2470.153,13.32,0.019,141.3
2019-08-20T08:39:34,42.805,6.029,0.011,-0.02,-0.013,103.0,105.0,100.0,13.3,1505.3,325.6,-0.7,1.9,2470.172,13.32,0.022,151.2
2019-08-20T08:42:35,42.805,6.029,-0.017,-0.014,-0.046,104.0,105.0,100.0,13.4,1505.3,327.6,-0.7,1.8,2470.164,13.32,0.022,230.5
2019-08-20T08:45:36,42.805,6.029,0.007,-0.026,-0.002,104.0,105.0,101.0,13.3,1505.3,327.2,-0.7,1.9,2470.14,13.32,0.026,164.9
2019-08-20T08:48:37,42.805,6.029,0.021,-0.033,-0.01,104.0,105.0,100.0,13.3,1505.3,325.2,-0.7,1.8,2470.172,13.32,0.039,147.5
2019-08-20T08:51:38,42.805,6.029,0.01,-0.027,0.021,104.0,105.0,100.0,13.4,1505.3,322.7,-0.7,1.8,2470.167,13.32,0.028,159.7
2019-08-20T08:54:39,42.805,6.029,-0.017,-0.022,-0.052,106.0,105.0,100.0,13.4,1505.3,326.5,-0.7,1.8,2470.138,13.32,0.027,217.7
2019-08-20T08:57:40,42.805,6.029,-0.019,-0.018,-0.018,105.0,105.0,100.0,13.4,1505.3,325.3,-0.7,1.8,2470.189,13.32,0.026,226.5
2019-08-20T09:00:41,42.805,6.029,-0.021,-0.018,-0.028,104.0,104.0,100.0,13.4,1505.3,327.3,-0.7,1.9,2470.155,13.32,0.027,229.4
2019-08-20T09:03:42,42.805,6.029,0.008,-0.024,-0.01,104.0,104.0,100.0,13.4,1505.3,326.6,-0.7,1.8,2470.16,13.32,0.025,161.6
2019-08-20T09:06:43,42.805,6.029,0.022,-0.012,0.011,103.0,105.0,101.0,13.4,1505.3,325.0,-0.7,1.9,2470.186,13.32,0.025,118.6
2019-08-20T09:09:44,42.805,6.029,0.034,-0.02,-0.027,105.0,107.0,100.0,13.4,1505.3,325.2,-0.7,1.8,2470.15,13.32,0.039,120.5
2019-08-20T09:12:45,42.805,6.029,0.022,-0.02,-0.001,102.0,107.0,99.0,13.4,1505.3,327.1,-0.7,1.9,2470.227,13.32,0.029,132.3
2019-08-20T09:15:46,42.805,6.029,0.003,-0.02,-0.022,103.0,107.0,99.0,13.4,1505.3,323.6,-0.7,1.8,2470.163,13.32,0.02,171.5
2019-08-20T09:18:47,42.805,6.029,-0.009,-0.013,-0.023,104.0,107.0,98.0,13.3,1505.3,324.7,-0.7,1.8,2470.169,13.32,0.015,214.7
2019-08-20T09:21:48,42.805,6.029,-0.004,-0.021,0.013,106.0,104.0,100.0,13.4,1505.3,323.6,-0.7,1.8,2470.158,13.32,0.021,190.8
2019-08-20T09:24:49,42.805,6.029,0.013,-0.009,-0.023,105.0,105.0,101.0,13.4,1505.3,328.2,-0.7,1.8,2470.152,13.32,0.015,124.7